Location: Lanoux
(43.1180°N, 1.4255°E)
Time: 02:18:42
(UTC+00:00)

Meteor 2-10 - Pass Details

Date: 23 March 2026
Orbit: 736 x 866 km, 81.2° (Epoch: 13 April)

Event Time Altitude Azimuth Distance (km) Brightness Sun altitude
Rises 03:45:29 0° 1° (N) 3,182 7.5 -23.3°
Reaches altitude 10° 03:48:12 10° 14° (NNE) 2,263 6.9 -22.8°
Maximum altitude 03:52:23 25° 70° (ENE) 1,477 6.2 -22.1°
Drops below altitude 10° 03:56:37 10° 126° (SE) 2,296 6.8 -21.4°
Sets 03:59:22 0° 139° (SE) 3,238 7.5 -20.9°
